Location: Key Biscayne
(25.6930°N, 80.1630°W)
Time: 06:07:14
(UTC-05:00)

Vanguard 2 Rocket - Visible Passes

Search period start: 22 November 2017 00:00
Search period end: 02 December 2017 00:00
Orbit: 556 x 3326 km, 32.9° (Epoch: 21 November)

Date Brightness Start Highest point End Pass type
(mag) Time Alt. Az. Time Alt. Az. Time Alt. Az.
22 Nov 9.5 02:32:36 35° ENE 02:32:36 35° ENE 02:37:19 10° ENE visible
22 Nov 8.4 04:38:25 41° WNW 04:42:45 59° N 04:50:43 10° ENE visible
22 Nov 10.6 20:37:03 10° S 20:44:41 18° SSE 20:44:41 18° SSE visible
22 Nov 10.8 22:46:56 10° SW 22:50:29 18° SSW 22:50:29 18° SSW visible
23 Nov 10.3 01:36:28 15° ENE 01:36:28 15° ENE 01:37:44 10° ENE visible
23 Nov 8.6 03:42:16 62° N 03:42:16 62° N 03:51:31 10° ENE visible
23 Nov 7.9 05:48:05 15° WNW 05:58:12 68° NNE 06:04:45 10° E visible
23 Nov 10.8 19:45:26 10° SE 19:47:04 10° SE 19:48:26 10° SE visible
23 Nov 10.4 21:46:57 10° SSW 21:54:13 26° S 21:54:13 26° S visible
24 Nov11.000:40:19ENE00:40:19ENE00:00:02SWvisible
24 Nov 9.3 02:46:07 42° NE 02:46:07 42° NE 02:52:09 10° ENE visible
24 Nov 8.3 04:51:56 35° WNW 04:57:54 63° N 05:05:45 10° E visible
24 Nov 10.3 20:48:00 10° S 20:58:01 26° SSE 20:58:01 26° SSE visible
24 Nov 10.7 23:00:26 10° SW 23:03:49 19° SW 23:03:49 19° SW visible
25 Nov 10.2 01:49:58 21° ENE 01:49:58 21° ENE 01:52:31 10° ENE visible
25 Nov 8.6 03:55:47 60° NNW 03:57:06 62° N 04:06:33 10° E visible
25 Nov 7.8 06:01:35 11° WNW 06:13:06 87° NNE 06:19:38 10° ESE visible
25 Nov 10.4 19:50:34 10° S 20:01:24 19° SE 20:01:51 19° SE visible
25 Nov 10.3 21:59:57 10° SW 22:07:39 31° SSW 22:07:39 31° SSW visible
26 Nov10.800:53:48ENE00:53:48ENE00:13:28WSWvisible
26 Nov 9.1 02:59:37 51° NE 02:59:37 51° NE 03:07:05 10° ENE visible
26 Nov 8.2 05:05:26 30° WNW 05:12:58 73° NNE 05:20:46 10° E visible
26 Nov 10.0 21:00:21 10° SSW 21:11:32 36° SSE 21:11:32 36° SSE visible
26 Nov 10.8 23:14:29 10° WSW 23:17:21 18° SW 23:17:21 18° SW visible
27 Nov 10.0 02:03:28 27° ENE 02:03:28 27° ENE 02:07:23 10° ENE visible
27 Nov 8.6 04:09:17 56° NW 04:12:15 67° N 04:21:36 10° E visible
27 Nov 7.9 06:15:49 10° WNW 06:27:42 68° SSW 06:34:13 10° SE visible
27 Nov 10.1 20:01:45 10° S 20:15:22 29° SE 20:15:27 29° SE visible
27 Nov 10.2 22:13:35 10° SW 22:21:16 33° SW 22:21:16 33° SW visible
28 Nov 10.7 01:07:19 10° ENE 01:07:19 10° ENE 01:07:20 10° ENE visible
28 Nov 8.9 03:13:08 60° NE 03:13:08 60° NE 03:22:08 10° E visible
28 Nov 8.1 05:18:56 25° WNW 05:27:49 89° SSW 05:35:35 10° ESE visible
28 Nov 10.4 19:04:41 10° S 19:14:27 18° SE 19:19:24 17° ESE visible
28 Nov 9.8 21:13:30 10° SW 21:25:12 46° S 21:25:12 46° S visible
28 Nov 10.9 23:29:01 10° WSW 23:31:01 15° WSW 23:31:01 15° WSW visible
29 Nov 9.7 02:17:00 34° ENE 02:17:00 34° ENE 02:22:21 10° ENE visible
29 Nov 8.5 04:22:48 51° WNW 04:27:19 77° NNE 04:36:35 10° ESE visible
29 Nov 9.8 20:14:17 10° SSW 20:29:11 41° SE 20:29:11 41° SE visible
29 Nov 10.3 22:27:44 10° WSW 22:35:00 33° SW 22:35:00 33° SW visible
30 Nov 10.5 01:20:53 15° ENE 01:20:53 15° ENE 01:22:15 10° ENE visible
30 Nov 8.8 03:26:42 70° NNE 03:26:42 70° NNE 03:37:12 10° E visible
30 Nov 8.3 05:32:30 21° WNW 05:42:20 68° SSW 05:50:07 10° SE visible
30 Nov 10.0 19:16:02 10° S 19:28:15 29° SE 19:33:11 26° ESE visible
30 Nov 9.7 21:27:15 10° SW 21:38:59 53° SSW 21:38:59 53° SSW visible
30 Nov 11.0 23:43:55 10° WSW 00:24:46 - ENE 23:44:48 12° WSW visible
01 Dec 9.5 02:30:35 43° ENE 02:30:35 43° ENE 02:37:26 10° E visible
01 Dec 8.4 04:36:24 45° WNW 04:42:07 87° SSW 04:51:22 10° ESE visible
01 Dec 10.3 18:19:20 10° SSE 18:27:45 18° SE 18:37:10 11° E visible
01 Dec 9.5 20:27:34 10° SW 20:42:59 55° SE 20:42:59 55° SE visible
01 Dec 10.3 22:42:20 10° WSW 22:48:49 30° WSW 22:48:49 30° WSW visible
